Weather History for KMCW - September, 2012

Change the Weather History Date:

Wednesday, September 5, 2012

  Actual Average Record
Temperature  
Mean Temperature 68 °F 65 °F  
Max Temperature 83 °F 77 °F 100 °F (1913)
Min Temperature 53 °F 53 °F 36 °F (1935)
Degree Days  
Heating Degree Days 0 3  
Month to date heating degree days 0 12  
Since 1 July heating degree days 31 48  
Cooling Degree Days 3 3  
Month to date cooling degree days 37 16  
Year to date cooling degree days 886 572  
Growing Degree Days 18 (Base 50)    
Moisture  
Dew Point 57 °F    
Average Humidity 64    
Maximum Humidity 93    
Minimum Humidity 34    
Precipitation  
Precipitation 0.18 in 0.12 in 3.32 in (1985)
Month to date precipitation 0.46 0.57  
Year to date precipitation 15.47 26.93  
Snow  
Snow 0.00 in 0.00 in - ()
Month to date snowfall 0.0 0.0  
Since 1 July snowfall 0.0 0.0  
Since 1 September snowfall 0.0 0.0  
Snow Depth 0.00 in    
Sea Level Pressure  
Sea Level Pressure 29.85 in    
Wind  
Wind Speed 9 mph (WNW)    
Max Wind Speed 37 mph    
Max Gust Speed 45 mph    
Visibility 9 miles    
Events Rain , Thunderstorm    
T = Trace of Precipitation, MM = Missing Value Source: NWS Daily Summary

Daily Weather History Graph

Daily Weather History Graph

Search for Another Location

Airport or City:

Trip Planner

Search our weather history database for the weather conditions in past years. The results will help you decide how hot, cold, wet, or windy it might be!

Date:

Astronomy

Sep. 05, 2012 Rise Set
Actual Time 6:42 AM CDT 7:40 PM CDT
Civil Twilight 6:13 AM CDT 8:09 PM CDT
Nautical Twilight 5:38 AM CDT 8:43 PM CDT
Astronomical Twilight 5:02 AM CDT 9:19 PM CDT
Moon 10:00 PM CDT (9/5) 11:57 AM CDT (9/5)
Length of Visible Light 13h 55m
Length of Day
12h 57m
Waning Gibbous, 76% of the Moon is Illuminated
Sep 5
Waning Gibbous
Sep 8
Last Quarter
Sep 15
New
Sep 22
First Quarter
Sep 29
Full

Hourly Weather History & Observations

Time (CDT) Temp. Heat Index Dew Point Humidity Pressure Visibility Wind Dir Wind Speed Gust Speed Precip Events Conditions
12:00 AM 66.2 °F - 60.8 °F 83% 29.86 in 2.5 mi WNW 40.3 mph 58.7 mph 0.03 in Rain , Thunderstorm Thunderstorms and Rain
12:05 AM 64.4 °F - 60.8 °F 88% 29.86 in 1.8 mi WNW 39.1 mph 58.7 mph 0.08 in Rain , Thunderstorm Heavy Thunderstorms and Rain
12:21 AM 66.2 °F - 60.8 °F 83% 29.90 in 3.0 mi WNW 41.4 mph 64.4 mph 0.17 in Rain , Thunderstorm Thunderstorms and Rain
12:53 AM 64.9 °F - 60.1 °F 84% 29.86 in 6.0 mi NW 31.1 mph 38.0 mph 0.24 in Rain , Thunderstorm Rain
1:10 AM 64.4 °F - 60.8 °F 88% 29.87 in 4.0 mi NNW 31.1 mph 43.7 mph 0.09 in Rain Heavy Rain
1:53 AM 64.0 °F - 57.9 °F 80% 29.86 in 9.0 mi NW 13.8 mph 20.7 mph 0.14 in Rain Light Rain
2:18 AM 64.4 °F - 59.0 °F 83% 29.89 in 7.0 mi Calm Calm - 0.04 in Rain , Thunderstorm Light Rain
2:33 AM 62.6 °F - 59.0 °F 88% 29.85 in 7.0 mi SE 10.4 mph - 0.07 in Rain Light Rain
2:53 AM 63.0 °F - 59.0 °F 87% 29.76 in 10.0 mi ESE 9.2 mph - 0.07 in   Scattered Clouds
3:53 AM 62.1 °F - 57.9 °F 86% 29.75 in 10.0 mi ESE 15.0 mph 21.9 mph N/A   Clear
4:53 AM 61.0 °F - 57.0 °F 87% 29.75 in 10.0 mi SE 8.1 mph 16.1 mph N/A   Clear
5:53 AM 60.1 °F - 57.0 °F 90% 29.79 in 10.0 mi SE 3.5 mph - N/A   Clear
6:53 AM 57.9 °F - 55.9 °F 93% 29.82 in 8.0 mi Calm Calm - N/A   Clear
7:53 AM 62.1 °F - 59.0 °F 90% 29.82 in 10.0 mi SSW 10.4 mph - N/A   Clear
8:53 AM 64.9 °F - 60.1 °F 84% 29.83 in 10.0 mi SW 10.4 mph - N/A   Mostly Cloudy
9:53 AM 68.0 °F - 62.1 °F 81% 29.84 in 10.0 mi West 12.7 mph - N/A   Overcast
10:29 AM 69.8 °F - 60.8 °F 73% 29.88 in 10.0 mi West 9.2 mph - N/A   Overcast
10:53 AM 70.0 °F - 62.1 °F 76% 29.83 in 10.0 mi WSW 11.5 mph - N/A   Overcast
11:53 AM 71.1 °F - 62.1 °F 73% 29.83 in 10.0 mi WSW 8.1 mph - N/A   Overcast
12:53 PM 73.9 °F - 62.1 °F 66% 29.83 in 10.0 mi West 10.4 mph - N/A   Overcast
1:53 PM 79.0 °F - 61.0 °F 54% 29.83 in 10.0 mi WNW 11.5 mph - N/A   Mostly Cloudy
2:53 PM 81.0 °F 81.1 °F 57.9 °F 45% 29.83 in 10.0 mi NNW 11.5 mph - N/A   Partly Cloudy
3:53 PM 82.0 °F 81.3 °F 54.0 °F 38% 29.83 in 10.0 mi NW 15.0 mph 24.2 mph N/A   Clear
4:53 PM 82.9 °F - 51.1 °F 33% 29.83 in 10.0 mi NNW 13.8 mph - N/A   Clear
5:53 PM 81.0 °F - 51.1 °F 35% 29.84 in 10.0 mi North 13.8 mph - N/A   Clear
6:53 PM 77.0 °F - 50.0 °F 39% 29.87 in 10.0 mi NNW 8.1 mph - N/A   Clear
7:53 PM 66.9 °F - 51.1 °F 57% 29.88 in 10.0 mi WNW 8.1 mph - N/A   Clear
8:53 PM 66.0 °F - 51.1 °F 59% 29.90 in 10.0 mi NW 9.2 mph - N/A   Clear
9:53 PM 64.0 °F - 48.9 °F 58% 29.91 in 10.0 mi NNW 8.1 mph - N/A   Clear
10:53 PM 55.9 °F - 48.9 °F 77% 29.92 in 10.0 mi NNW 6.9 mph - N/A   Clear
11:53 PM 54.0 °F - 46.9 °F 77% 29.93 in 10.0 mi NW 3.5 mph - N/A   Clear